Location: Hylvaty SDH
(49.9612°N, 16.4057°E)
Time: 12:22:18
(UTC+01:00)

A-11 Canister half - Pass Details

Date: 11 October 2020
Orbit: 1526 x 1683 km, 47.3° (Epoch: 28 October)

Event Time Altitude Azimuth Distance (km) Brightness Sun altitude
Rises 18:18:00 0° 193° (SSW) 4,699 11.9 -2.0°
Reaches altitude 10° 18:21:53 10° 179° (S) 3,703 11.1 -2.6°
Maximum altitude 18:28:36 23° 132° (SE) 2,812 10.1 -3.7°
Drops below altitude 10° 18:35:18 10° 85° (E) 3,697 10.3 -4.7°
Enters shadow 18:37:04 - 78° (ENE) 4,130 10.6 -5.0°
Sets 18:39:08 0° 72° (ENE) 4,689 - -5.4°
